^^

Weather Underground History

Daily Summary for March 2, 2019 Units:  Metric    English   Both
Daily Weekly Monthly Yearly
  High: Low: Average:
Temperature: 14 °C 6 °C 10.1 °C
Dew Point: 10 °C 4 °C 7.1 °C
Humidity: 91% 63% 82%
Wind Speed: 14km/h 0km/h 5.3km/h
Wind Gust: 26km/h - -
Wind- - WSW
Pressure: 1014.5 hPa 1010.9 hPa -
Precipitation: 2.5 mm    
 
 
Tabular Data for March 2, 2019
Time Temperature Dew Point Pressure Wind Wind Speed Wind Gust Humidity Rainfall Rate (Hourly) solar
00:04 10 °C 8 °C 1014.5 hPa NW 2 km/h 6 km/h 86% 0.0 mm 0 W/m2
00:09 10 °C 8 °C 1014.5 hPa NW 2 km/h 10 km/h 86% 0.0 mm 0 W/m2
00:14 10 °C 8 °C 1014.4 hPa NW 3 km/h 8 km/h 86% 0.0 mm 0 W/m2
00:19 10 °C 8 °C 1014.4 hPa NW 3 km/h 6 km/h 86% 0.0 mm 0 W/m2
00:24 10 °C 8 °C 1014.4 hPa NW 2 km/h 6 km/h 86% 0.0 mm 0 W/m2
00:29 10 °C 8 °C 1014.4 hPa NW 1 km/h 5 km/h 86% 0.0 mm 0 W/m2
00:34 10 °C 8 °C 1014.4 hPa NW 3 km/h 8 km/h 86% 0.0 mm 0 W/m2
00:39 10 °C 8 °C 1014.3 hPa NW 4 km/h 10 km/h 86% 0.0 mm 0 W/m2
00:44 10 °C 8 °C 1014.3 hPa NW 5 km/h 8 km/h 86% 0.0 mm 0 W/m2
00:49 9 °C 8 °C 1014.2 hPa NW 5 km/h 10 km/h 86% 0.0 mm 0 W/m2
00:54 9 °C 7 °C 1014.2 hPa NW 5 km/h 10 km/h 86% 0.0 mm 0 W/m2
00:59 9 °C 7 °C 1014.2 hPa NW 6 km/h 13 km/h 86% 0.0 mm 0 W/m2
01:04 9 °C 7 °C 1014.2 hPa NW 5 km/h 10 km/h 86% 0.0 mm 0 W/m2
01:09 9 °C 7 °C 1014.1 hPa NW 6 km/h 10 km/h 86% 0.0 mm 0 W/m2
01:14 9 °C 7 °C 1014.0 hPa NW 5 km/h 8 km/h 86% 0.0 mm 0 W/m2
01:19 9 °C 7 °C 1014.0 hPa NW 6 km/h 10 km/h 86% 0.0 mm 0 W/m2
01:24 9 °C 7 °C 1014.0 hPa NNW 7 km/h 13 km/h 86% 0.0 mm 0 W/m2
01:29 9 °C 7 °C 1014.0 hPa NW 6 km/h 13 km/h 86% 0.0 mm 0 W/m2
01:34 9 °C 7 °C 1014.0 hPa NW 5 km/h 10 km/h 86% 0.0 mm 0 W/m2
01:39 9 °C 7 °C 1014.0 hPa NW 5 km/h 10 km/h 86% 0.0 mm 0 W/m2
01:44 9 °C 7 °C 1013.9 hPa NW 6 km/h 10 km/h 86% 0.0 mm 0 W/m2
01:49 9 °C 7 °C 1013.9 hPa NW 4 km/h 10 km/h 85% 0.0 mm 0 W/m2
01:57 9 °C 7 °C 1013.9 hPa NW 3 km/h 6 km/h 85% 0.0 mm 0 W/m2
02:04 9 °C 7 °C 1013.8 hPa NW 6 km/h 14 km/h 84% 0.0 mm 0 W/m2
02:09 9 °C 7 °C 1013.9 hPa NW 6 km/h 13 km/h 83% 0.0 mm 0 W/m2
02:14 9 °C 6 °C 1013.7 hPa NW 7 km/h 11 km/h 83% 0.0 mm 0 W/m2
02:19 9 °C 6 °C 1013.7 hPa NW 6 km/h 13 km/h 82% 0.0 mm 0 W/m2
02:24 9 °C 6 °C 1013.6 hPa NW 7 km/h 13 km/h 82% 0.0 mm 0 W/m2
02:29 9 °C 6 °C 1013.6 hPa NW 6 km/h 13 km/h 82% 0.0 mm 0 W/m2
02:34 9 °C 6 °C 1013.7 hPa NW 6 km/h 13 km/h 82% 0.0 mm 0 W/m2
02:39 9 °C 6 °C 1013.7 hPa NW 4 km/h 10 km/h 83% 0.0 mm 0 W/m2
02:44 9 °C 6 °C 1013.6 hPa NW 4 km/h 6 km/h 83% 0.0 mm 0 W/m2
02:49 8 °C 6 °C 1013.6 hPa NW 3 km/h 8 km/h 83% 0.0 mm 0 W/m2
02:54 8 °C 6 °C 1013.6 hPa NW 2 km/h 8 km/h 83% 0.0 mm 0 W/m2
02:59 8 °C 6 °C 1013.6 hPa NW 4 km/h 11 km/h 83% 0.0 mm 0 W/m2
03:04 8 °C 6 °C 1013.6 hPa NW 4 km/h 11 km/h 82% 0.0 mm 0 W/m2
03:09 8 °C 6 °C 1013.5 hPa NW 4 km/h 8 km/h 82% 0.0 mm 0 W/m2
03:14 8 °C 6 °C 1013.5 hPa NW 1 km/h 8 km/h 82% 0.0 mm 0 W/m2
03:19 8 °C 6 °C 1013.5 hPa NW 2 km/h 6 km/h 83% 0.0 mm 0 W/m2
03:24 8 °C 6 °C 1013.5 hPa NW 1 km/h 6 km/h 83% 0.0 mm 0 W/m2
03:29 8 °C 6 °C 1013.5 hPa NW 2 km/h 6 km/h 83% 0.0 mm 0 W/m2
03:34 8 °C 6 °C 1013.4 hPa NW 2 km/h 6 km/h 83% 0.0 mm 0 W/m2
03:39 8 °C 6 °C 1013.5 hPa NW 1 km/h 6 km/h 84% 0.0 mm 0 W/m2
03:44 8 °C 6 °C 1013.4 hPa Calm   5 km/h 84% 0.0 mm 0 W/m2
03:49 8 °C 6 °C 1013.4 hPa NW 1 km/h 5 km/h 84% 0.0 mm 0 W/m2
03:54 8 °C 6 °C 1013.3 hPa NW 3 km/h 6 km/h 84% 0.0 mm 0 W/m2
03:59 8 °C 6 °C 1013.4 hPa NNW 4 km/h 10 km/h 84% 0.0 mm 0 W/m2
04:04 8 °C 6 °C 1013.3 hPa NNW 1 km/h 10 km/h 84% 0.0 mm 0 W/m2
04:09 8 °C 6 °C 1013.3 hPa NNW 1 km/h 6 km/h 84% 0.0 mm 0 W/m2
04:14 8 °C 6 °C 1013.3 hPa NNW 2 km/h 6 km/h 84% 0.0 mm 0 W/m2
04:19 8 °C 6 °C 1013.3 hPa NNW 1 km/h 5 km/h 84% 0.0 mm 0 W/m2
04:24 8 °C 5 °C 1013.2 hPa NNW 1 km/h 3 km/h 84% 0.0 mm 0 W/m2
04:29 8 °C 5 °C 1013.2 hPa Calm   3 km/h 84% 0.0 mm 0 W/m2
04:34 8 °C 5 °C 1013.2 hPa NNW 1 km/h 3 km/h 84% 0.0 mm 0 W/m2
04:39 8 °C 5 °C 1013.2 hPa NNW 1 km/h 5 km/h 84% 0.0 mm 0 W/m2
04:44 7 °C 5 °C 1013.2 hPa NNW 2 km/h 5 km/h 85% 0.0 mm 0 W/m2
04:49 7 °C 5 °C 1013.2 hPa NNW 1 km/h 5 km/h 85% 0.0 mm 0 W/m2
04:54 7 °C 5 °C 1013.2 hPa NNW 1 km/h 5 km/h 85% 0.0 mm 0 W/m2
04:59 7 °C 5 °C 1013.1 hPa NNW 1 km/h 3 km/h 85% 0.0 mm 0 W/m2
05:04 7 °C 5 °C 1013.1 hPa Calm   3 km/h 85% 0.0 mm 0 W/m2
05:09 7 °C 5 °C 1013.1 hPa NNW 1 km/h 5 km/h 86% 0.0 mm 0 W/m2
05:14 7 °C 5 °C 1013.1 hPa NNW 1 km/h 5 km/h 86% 0.0 mm 0 W/m2
05:19 7 °C 5 °C 1013.0 hPa Calm   3 km/h 86% 0.0 mm 0 W/m2
05:24 7 °C 5 °C 1013.0 hPa Calm     86% 0.0 mm 0 W/m2
05:29 7 °C 5 °C 1013.0 hPa Calm   2 km/h 86% 0.0 mm 0 W/m2
05:34 7 °C 4 °C 1013.0 hPa Calm   3 km/h 86% 0.0 mm 0 W/m2
05:39 7 °C 4 °C 1013.0 hPa NNW 1 km/h 3 km/h 87% 0.0 mm 7 W/m2
05:44 7 °C 4 °C 1013.0 hPa NNW 1 km/h 5 km/h 87% 0.0 mm 9 W/m2
05:49 6 °C 4 °C 1013.0 hPa Calm   2 km/h 87% 0.0 mm 11 W/m2
05:54 6 °C 4 °C 1012.9 hPa Calm   3 km/h 88% 0.0 mm 12 W/m2
05:59 6 °C 4 °C 1012.9 hPa Calm     88% 0.0 mm 14 W/m2
06:04 6 °C 4 °C 1013.0 hPa WNW 1 km/h 6 km/h 88% 0.0 mm 16 W/m2
06:09 6 °C 4 °C 1013.0 hPa WNW 1 km/h 10 km/h 89% 0.0 mm 16 W/m2
06:14 6 °C 4 °C 1013.1 hPa WNW 1 km/h 5 km/h 89% 0.0 mm 21 W/m2
06:19 6 °C 4 °C 1013.1 hPa WNW 1 km/h 5 km/h 89% 0.0 mm 32 W/m2
06:24 6 °C 4 °C 1013.2 hPa WNW 1 km/h 5 km/h 89% 0.0 mm 30 W/m2
06:29 7 °C 5 °C 1013.1 hPa Calm   2 km/h 89% 0.0 mm 46 W/m2
06:33 7 °C 5 °C 1013.0 hPa Calm     90% 0.0 mm 74 W/m2
06:39 7 °C 5 °C 1013.1 hPa Calm     90% 0.0 mm 97 W/m2
06:44 7 °C 6 °C 1013.0 hPa Calm     91% 0.0 mm 111 W/m2
06:49 7 °C 6 °C 1013.0 hPa Calm     91% 0.0 mm 127 W/m2
06:53 7 °C 6 °C 1013.0 hPa Calm     91% 0.0 mm 137 W/m2
06:59 8 °C 6 °C 1013.1 hPa Calm   3 km/h 90% 0.0 mm 158 W/m2
07:04 8 °C 6 °C 1013.0 hPa WNW 1 km/h 5 km/h 90% 0.0 mm 172 W/m2
07:07 8 °C 6 °C 1013.0 hPa WNW 4 km/h 6 km/h 90% 0.0 mm 178 W/m2
07:14 8 °C 7 °C 1013.0 hPa Calm   10 km/h 89% 0.0 mm 204 W/m2
07:18 8 °C 7 °C 1013.0 hPa WNW 4 km/h 10 km/h 89% 0.0 mm 232 W/m2
07:44 9 °C 7 °C 1012.8 hPa WNW 3 km/h 6 km/h 87% 0.0 mm 79 W/m2
07:48 9 °C 7 °C 1012.8 hPa WNW 3 km/h 10 km/h 87% 0.0 mm 95 W/m2
07:54 9 °C 7 °C 1012.9 hPa NW 5 km/h 11 km/h 87% 0.0 mm 77 W/m2
07:59 9 °C 7 °C 1012.9 hPa WNW 6 km/h 13 km/h 87% 0.0 mm 102 W/m2
08:04 9 °C 7 °C 1012.9 hPa WNW 5 km/h 10 km/h 87% 0.0 mm 149 W/m2
08:05 9 °C 7 °C 1012.9 hPa WNW 3 km/h 10 km/h 87% 0.0 mm 134 W/m2
08:14 9 °C 7 °C 1012.9 hPa NW 6 km/h 10 km/h 87% 0.0 mm 146 W/m2
08:19 9 °C 7 °C 1012.9 hPa NW 6 km/h 11 km/h 87% 0.0 mm 178 W/m2
08:24 9 °C 7 °C 1012.8 hPa WNW 4 km/h 13 km/h 87% 0.0 mm 227 W/m2
08:29 9 °C 8 °C 1012.8 hPa West 5 km/h 13 km/h 87% 0.0 mm 276 W/m2
08:34 10 °C 8 °C 1012.7 hPa WNW 6 km/h 11 km/h 86% 0.0 mm 232 W/m2
08:39 10 °C 8 °C 1012.7 hPa West 7 km/h 11 km/h 86% 0.0 mm 186 W/m2
08:44 10 °C 8 °C 1012.7 hPa WSW 4 km/h 10 km/h 86% 0.0 mm 327 W/m2
08:49 10 °C 8 °C 1012.8 hPa West 5 km/h 11 km/h 86% 0.0 mm 322 W/m2
08:54 10 °C 8 °C 1012.8 hPa West 8 km/h 14 km/h 84% 0.0 mm 109 W/m2
08:59 10 °C 7 °C 1012.8 hPa WNW 7 km/h 14 km/h 84% 0.0 mm 105 W/m2
09:04 10 °C 7 °C 1012.7 hPa WNW 6 km/h 13 km/h 84% 0.0 mm 100 W/m2
09:09 10 °C 7 °C 1012.8 hPa WNW 9 km/h 16 km/h 84% 0.0 mm 162 W/m2
09:14 10 °C 7 °C 1012.8 hPa WNW 7 km/h 13 km/h 84% 0.0 mm 299 W/m2
09:19 10 °C 8 °C 1012.8 hPa West 7 km/h 13 km/h 85% 0.0 mm 253 W/m2
09:24 10 °C 8 °C 1012.8 hPa WNW 7 km/h 13 km/h 84% 0.0 mm 211 W/m2
09:29 10 °C 8 °C 1012.8 hPa NW 7 km/h 13 km/h 84% 0.0 mm 251 W/m2
09:33 11 °C 8 °C 1012.7 hPa WNW 6 km/h 8 km/h 84% 0.0 mm 144 W/m2
09:39 11 °C 8 °C 1012.7 hPa WNW 4 km/h 10 km/h 84% 0.0 mm 731 W/m2
09:43 11 °C 8 °C 1012.7 hPa WNW 5 km/h 10 km/h 85% 0.0 mm 749 W/m2
09:45 11 °C 8 °C 1012.7 hPa WNW 6 km/h 14 km/h 83% 0.0 mm 167 W/m2
09:54 11 °C 7 °C 1012.7 hPa NW 8 km/h 14 km/h 81% 0.0 mm 186 W/m2
09:59 11 °C 8 °C 1012.7 hPa WNW 7 km/h 14 km/h 81% 0.0 mm 214 W/m2
10:04 11 °C 8 °C 1012.7 hPa WNW 8 km/h 18 km/h 82% 0.0 mm 283 W/m2
10:09 11 °C 8 °C 1012.7 hPa WNW 9 km/h 18 km/h 82% 0.0 mm 415 W/m2
10:14 11 °C 8 °C 1012.5 hPa WNW 9 km/h 16 km/h 82% 0.0 mm 396 W/m2
10:19 11 °C 8 °C 1012.6 hPa WNW 8 km/h 16 km/h 81% 0.0 mm 364 W/m2
10:24 11 °C 8 °C 1012.6 hPa NW 8 km/h 16 km/h 80% 0.0 mm 369 W/m2
10:29 12 °C 8 °C 1012.5 hPa WNW 8 km/h 16 km/h 81% 0.0 mm 954 W/m2
10:34 12 °C 8 °C 1012.5 hPa WNW 8 km/h 16 km/h 79% 0.0 mm 369 W/m2
10:39 12 °C 8 °C 1012.5 hPa WNW 8 km/h 14 km/h 78% 0.0 mm 287 W/m2
10:44 11 °C 8 °C 1012.5 hPa WNW 7 km/h 14 km/h 79% 0.0 mm 167 W/m2
10:49 11 °C 8 °C 1012.6 hPa WNW 11 km/h 19 km/h 80% 3.3 mm 148 W/m2
10:54 11 °C 8 °C 1012.6 hPa WNW 9 km/h 19 km/h 83% 3.3 mm 181 W/m2
10:59 10 °C 8 °C 1012.6 hPa WNW 5 km/h 16 km/h 84% 2.0 mm 199 W/m2
11:04 10 °C 8 °C 1012.6 hPa NW 5 km/h 10 km/h 86% 1.3 mm 253 W/m2
11:09 10 °C 8 °C 1012.5 hPa NW 4 km/h 10 km/h 86% 0.8 mm 251 W/m2
11:14 11 °C 8 °C 1012.5 hPa WNW 5 km/h 13 km/h 87% 0.0 mm 206 W/m2
11:19 11 °C 8 °C 1012.5 hPa WNW 4 km/h 8 km/h 87% 0.0 mm 178 W/m2
11:24 11 °C 8 °C 1012.5 hPa WNW 6 km/h 13 km/h 87% 0.0 mm 158 W/m2
11:29 11 °C 8 °C 1012.5 hPa WNW 6 km/h 13 km/h 87% 0.0 mm 163 W/m2
11:34 11 °C 8 °C 1012.5 hPa WNW 7 km/h 14 km/h 87% 2.0 mm 308 W/m2
11:39 11 °C 8 °C 1012.5 hPa NW 7 km/h 14 km/h 87% 2.0 mm 369 W/m2
11:44 11 °C 8 °C 1012.4 hPa NW 8 km/h 13 km/h 87% 1.3 mm 369 W/m2
11:49 11 °C 8 °C 1012.4 hPa NW 8 km/h 16 km/h 87% 0.8 mm 591 W/m2
11:54 11 °C 9 °C 1012.3 hPa NW 5 km/h 13 km/h 88% 0.0 mm 657 W/m2
11:59 11 °C 9 °C 1012.3 hPa NW 5 km/h 13 km/h 89% 0.0 mm 1034 W/m2
12:04 12 °C 10 °C 1012.2 hPa NW 10 km/h 18 km/h 88% 0.0 mm 1034 W/m2
12:09 12 °C 9 °C 1012.2 hPa WNW 11 km/h 19 km/h 85% 0.0 mm 911 W/m2
12:14 12 °C 9 °C 1012.2 hPa NW 10 km/h 16 km/h 84% 0.0 mm 522 W/m2
12:19 12 °C 9 °C 1012.1 hPa NW 8 km/h 16 km/h 84% 0.0 mm 454 W/m2
12:24 12 °C 9 °C 1012.2 hPa WNW 9 km/h 21 km/h 84% 0.0 mm 411 W/m2
12:29 12 °C 9 °C 1012.1 hPa WNW 9 km/h 21 km/h 83% 0.0 mm 707 W/m2
12:34 12 °C 8 °C 1012.1 hPa NW 11 km/h 18 km/h 82% 0.0 mm 826 W/m2
12:39 12 °C 9 °C 1012.1 hPa WNW 10 km/h 18 km/h 82% 0.0 mm 826 W/m2
12:44 12 °C 9 °C 1012.1 hPa WNW 9 km/h 19 km/h 82% 0.0 mm 570 W/m2
12:49 12 °C 9 °C 1012.0 hPa NW 11 km/h 19 km/h 81% 0.0 mm 494 W/m2
12:54 12 °C 8 °C 1012.0 hPa WNW 11 km/h 19 km/h 80% 0.0 mm 323 W/m2
13:04 12 °C 8 °C 1011.7 hPa NW 9 km/h 14 km/h 81% 0.0 mm 932 W/m2
13:09 12 °C 9 °C 1011.7 hPa NW 7 km/h 14 km/h 82% 0.0 mm 956 W/m2
13:14 12 °C 9 °C 1011.7 hPa NW 8 km/h 14 km/h 81% 0.0 mm 946 W/m2
13:19 13 °C 9 °C 1011.7 hPa NW 11 km/h 18 km/h 79% 0.0 mm 881 W/m2
13:24 13 °C 9 °C 1011.8 hPa NW 13 km/h 23 km/h 76% 0.0 mm 888 W/m2
13:29 13 °C 9 °C 1011.7 hPa NW 11 km/h 19 km/h 78% 0.0 mm 833 W/m2
13:34 13 °C 9 °C 1011.7 hPa WNW 12 km/h 23 km/h 78% 0.0 mm 874 W/m2
13:39 13 °C 9 °C 1011.6 hPa WNW 12 km/h 23 km/h 75% 0.0 mm 870 W/m2
13:44 13 °C 9 °C 1011.6 hPa WNW 11 km/h 21 km/h 76% 0.0 mm 900 W/m2
13:49 13 °C 9 °C 1011.6 hPa WNW 12 km/h 21 km/h 74% 0.0 mm 900 W/m2
13:54 13 °C 8 °C 1011.7 hPa WNW 11 km/h 23 km/h 73% 0.0 mm 821 W/m2
13:59 13 °C 8 °C 1011.7 hPa WNW 12 km/h 24 km/h 72% 0.0 mm 710 W/m2
14:04 12 °C 8 °C 1011.7 hPa WNW 12 km/h 24 km/h 73% 0.0 mm 501 W/m2
14:09 12 °C 8 °C 1011.8 hPa WNW 11 km/h 23 km/h 76% 0.0 mm 918 W/m2
14:14 13 °C 8 °C 1011.6 hPa WNW 14 km/h 26 km/h 75% 0.0 mm 902 W/m2
14:19 13 °C 8 °C 1011.6 hPa NW 14 km/h 26 km/h 73% 0.0 mm 895 W/m2
14:24 13 °C 8 °C 1011.7 hPa NW 10 km/h 23 km/h 73% 0.0 mm 905 W/m2
14:29 13 °C 8 °C 1011.6 hPa NW 9 km/h 14 km/h 74% 0.0 mm 905 W/m2
14:34 13 °C 8 °C 1011.5 hPa WNW 12 km/h 21 km/h 73% 0.0 mm 772 W/m2
14:39 13 °C 8 °C 1011.5 hPa WNW 11 km/h 24 km/h 68% 0.0 mm 661 W/m2
14:44 13 °C 7 °C 1011.5 hPa WNW 11 km/h 21 km/h 65% 0.0 mm 568 W/m2
14:49 13 °C 7 °C 1011.5 hPa NW 10 km/h 21 km/h 66% 0.0 mm 478 W/m2
14:54 13 °C 7 °C 1011.4 hPa NW 8 km/h 16 km/h 67% 0.0 mm 417 W/m2
14:59 12 °C 7 °C 1011.4 hPa NW 8 km/h 13 km/h 68% 0.0 mm 427 W/m2
15:04 12 °C 7 °C 1011.5 hPa NW 5 km/h 13 km/h 69% 0.0 mm 765 W/m2
15:09 13 °C 8 °C 1011.5 hPa WNW 9 km/h 16 km/h 71% 0.0 mm 765 W/m2
15:14 13 °C 8 °C 1011.5 hPa WNW 8 km/h 16 km/h 70% 0.0 mm 791 W/m2
15:19 13 °C 8 °C 1011.4 hPa WNW 10 km/h 19 km/h 71% 0.0 mm 791 W/m2
15:24 13 °C 8 °C 1011.3 hPa WNW 8 km/h 18 km/h 73% 0.0 mm 729 W/m2
15:29 13 °C 8 °C 1011.3 hPa NW 9 km/h 23 km/h 71% 0.0 mm 724 W/m2
15:34 14 °C 8 °C 1011.2 hPa NW 8 km/h 19 km/h 70% 0.0 mm 728 W/m2
15:39 14 °C 8 °C 1011.2 hPa WNW 11 km/h 21 km/h 68% 0.0 mm 717 W/m2
15:44 14 °C 8 °C 1011.1 hPa WNW 10 km/h 18 km/h 69% 0.0 mm 735 W/m2
15:49 14 °C 8 °C 1011.1 hPa WNW 9 km/h 18 km/h 70% 0.0 mm 772 W/m2
15:54 14 °C 8 °C 1011.0 hPa NW 9 km/h 18 km/h 69% 0.0 mm 849 W/m2
15:59 14 °C 8 °C 1011.0 hPa WNW 10 km/h 18 km/h 68% 0.0 mm 698 W/m2
16:04 14 °C 8 °C 1011.0 hPa NW 8 km/h 18 km/h 68% 0.0 mm 334 W/m2
16:09 13 °C 8 °C 1011.0 hPa NW 7 km/h 19 km/h 69% 0.0 mm 302 W/m2
16:14 13 °C 7 °C 1011.1 hPa NW 6 km/h 21 km/h 67% 0.0 mm 137 W/m2
16:19 13 °C 7 °C 1011.4 hPa NNE 4 km/h 11 km/h 69% 5.6 mm 79 W/m2
16:24 12 °C 7 °C 1011.4 hPa ENE 2 km/h 8 km/h 73% 15.8 mm 132 W/m2
16:29 12 °C 7 °C 1011.1 hPa Calm     75% 5.1 mm 278 W/m2
16:34 11 °C 8 °C 1011.0 hPa North 3 km/h 11 km/h 77% 3.3 mm 744 W/m2
16:39 12 °C 8 °C 1010.9 hPa NW 8 km/h 21 km/h 80% 1.5 mm 701 W/m2
16:44 12 °C 9 °C 1011.0 hPa WNW 9 km/h 16 km/h 79% 0.8 mm 701 W/m2
16:49 13 °C 9 °C 1011.0 hPa NW 10 km/h 19 km/h 75% 0.0 mm 636 W/m2
16:54 13 °C 8 °C 1011.0 hPa NW 9 km/h 21 km/h 72% 0.0 mm 269 W/m2
16:59 13 °C 8 °C 1011.0 hPa NNW 6 km/h 16 km/h 74% 0.0 mm 582 W/m2
17:04 13 °C 9 °C 1011.0 hPa NW 8 km/h 18 km/h 73% 0.0 mm 563 W/m2
17:09 13 °C 8 °C 1011.1 hPa NW 8 km/h 18 km/h 70% 0.0 mm 566 W/m2
17:14 13 °C 8 °C 1011.1 hPa NW 10 km/h 19 km/h 69% 0.0 mm 512 W/m2
17:19 13 °C 8 °C 1011.1 hPa WNW 11 km/h 18 km/h 68% 0.0 mm 483 W/m2
17:24 13 °C 8 °C 1011.1 hPa NW 9 km/h 18 km/h 68% 0.0 mm 459 W/m2
17:29 13 °C 8 °C 1011.2 hPa NW 9 km/h 18 km/h 67% 0.0 mm 459 W/m2
17:34 13 °C 7 °C 1011.2 hPa NW 6 km/h 16 km/h 66% 0.0 mm 429 W/m2
17:39 14 °C 8 °C 1011.3 hPa NW 7 km/h 18 km/h 66% 0.0 mm 429 W/m2
17:44 14 °C 7 °C 1011.3 hPa WNW 10 km/h 18 km/h 64% 0.0 mm 436 W/m2
17:49 13 °C 7 °C 1011.3 hPa WNW 10 km/h 18 km/h 64% 0.0 mm 429 W/m2
17:52 13 °C 7 °C 1011.3 hPa WNW 10 km/h 18 km/h 63% 0.0 mm 156 W/m2
18:04 13 °C 7 °C 1011.4 hPa WNW 10 km/h 16 km/h 65% 0.0 mm 462 W/m2
18:09 13 °C 7 °C 1011.4 hPa WNW 9 km/h 19 km/h 64% 0.0 mm 404 W/m2
18:14 13 °C 7 °C 1011.5 hPa NW 11 km/h 21 km/h 64% 0.0 mm 343 W/m2
18:19 13 °C 7 °C 1011.4 hPa WNW 10 km/h 21 km/h 64% 0.0 mm 311 W/m2
18:24 13 °C 7 °C 1011.5 hPa NW 8 km/h 16 km/h 64% 0.0 mm 290 W/m2
18:29 13 °C 7 °C 1011.5 hPa NW 6 km/h 16 km/h 65% 0.0 mm 272 W/m2
18:34 13 °C 7 °C 1011.5 hPa NW 7 km/h 14 km/h 65% 0.0 mm 264 W/m2
18:39 13 °C 7 °C 1011.5 hPa NW 6 km/h 13 km/h 65% 0.0 mm 281 W/m2
18:44 13 °C 7 °C 1011.5 hPa NW 8 km/h 13 km/h 65% 0.0 mm 288 W/m2
18:49 13 °C 7 °C 1011.5 hPa NW 8 km/h 14 km/h 65% 0.0 mm 185 W/m2
18:54 13 °C 7 °C 1011.5 hPa NW 6 km/h 13 km/h 65% 0.0 mm 134 W/m2
18:59 13 °C 6 °C 1011.5 hPa WNW 7 km/h 13 km/h 65% 0.0 mm 207 W/m2
19:04 12 °C 7 °C 1011.6 hPa NW 7 km/h 13 km/h 67% 0.0 mm 172 W/m2
19:09 12 °C 6 °C 1011.7 hPa NW 6 km/h 13 km/h 67% 0.0 mm 49 W/m2
19:14 12 °C 7 °C 1012.0 hPa NNW 2 km/h 11 km/h 68% 0.0 mm 25 W/m2
19:19 12 °C 7 °C 1012.1 hPa NE 6 km/h 13 km/h 72% 0.0 mm 12 W/m2
19:24 12 °C 7 °C 1012.2 hPa NE 7 km/h 16 km/h 75% 0.0 mm 9 W/m2
19:29 11 °C 7 °C 1012.3 hPa NE 7 km/h 16 km/h 77% 0.0 mm 9 W/m2
19:34 11 °C 7 °C 1012.3 hPa NE 2 km/h 13 km/h 79% 0.0 mm 9 W/m2
19:39 11 °C 7 °C 1012.3 hPa NE 4 km/h 10 km/h 80% 0.0 mm 9 W/m2
19:44 11 °C 8 °C 1012.4 hPa Calm   8 km/h 82% 0.0 mm 9 W/m2
19:49 11 °C 8 °C 1012.4 hPa NE 1 km/h 6 km/h 83% 0.0 mm 9 W/m2
19:54 11 °C 8 °C 1012.4 hPa NE 1 km/h 8 km/h 84% 0.0 mm 5 W/m2
19:59 11 °C 8 °C 1012.5 hPa Calm   2 km/h 84% 0.0 mm 5 W/m2
20:04 11 °C 8 °C 1012.5 hPa NE 1 km/h 6 km/h 85% 0.0 mm 0 W/m2
20:09 11 °C 8 °C 1012.6 hPa ENE 4 km/h 8 km/h 85% 0.0 mm 0 W/m2
20:14 11 °C 8 °C 1012.7 hPa ENE 1 km/h 6 km/h 85% 0.0 mm 0 W/m2
20:18 11 °C 8 °C 1012.8 hPa ENE 1 km/h 6 km/h 86% 0.0 mm 0 W/m2
20:24 10 °C 8 °C 1012.9 hPa ENE 3 km/h 8 km/h 86% 0.0 mm 0 W/m2
20:29 10 °C 8 °C 1012.9 hPa ENE 2 km/h 8 km/h 86% 0.0 mm 0 W/m2
20:34 10 °C 8 °C 1013.0 hPa East 3 km/h 11 km/h 87% 0.0 mm 0 W/m2
20:39 10 °C 8 °C 1013.0 hPa East 7 km/h 14 km/h 87% 0.8 mm 0 W/m2
20:44 9 °C 8 °C 1013.1 hPa East 7 km/h 14 km/h 88% 0.8 mm 0 W/m2
20:49 9 °C 7 °C 1013.1 hPa East 5 km/h 11 km/h 88% 0.8 mm 0 W/m2
20:54 9 °C 7 °C 1013.3 hPa ENE 4 km/h 8 km/h 88% 0.8 mm 0 W/m2
20:59 9 °C 7 °C 1013.3 hPa East 3 km/h 10 km/h 88% 0.8 mm 0 W/m2
21:04 9 °C 7 °C 1013.3 hPa East 4 km/h 10 km/h 89% 0.0 mm 0 W/m2
21:09 9 °C 7 °C 1013.4 hPa East 6 km/h 11 km/h 89% 0.0 mm 0 W/m2
21:14 9 °C 7 °C 1013.5 hPa East 5 km/h 11 km/h 89% 0.0 mm 0 W/m2
21:19 8 °C 7 °C 1013.5 hPa East 8 km/h 13 km/h 89% 0.0 mm 0 W/m2
21:24 8 °C 7 °C 1013.5 hPa East 7 km/h 11 km/h 89% 0.0 mm 0 W/m2
21:29 8 °C 7 °C 1013.6 hPa East 4 km/h 10 km/h 90% 0.0 mm 0 W/m2
21:34 8 °C 7 °C 1013.7 hPa ENE 2 km/h 6 km/h 90% 0.0 mm 0 W/m2
21:39 8 °C 7 °C 1013.8 hPa ENE 2 km/h 8 km/h 90% 0.0 mm 0 W/m2
21:43 8 °C 7 °C 1013.8 hPa ENE 1 km/h 8 km/h 90% 0.0 mm 0 W/m2
21:49 8 °C 7 °C 1013.9 hPa ENE 2 km/h 8 km/h 90% 0.0 mm 0 W/m2
21:54 8 °C 7 °C 1013.9 hPa ENE 4 km/h 8 km/h 91% 0.0 mm 0 W/m2
21:59 8 °C 7 °C 1013.9 hPa ENE 4 km/h 8 km/h 91% 0.0 mm 0 W/m2
22:04 8 °C 7 °C 1014.0 hPa East 3 km/h 10 km/h 91% 0.0 mm 0 W/m2
22:09 8 °C 7 °C 1014.0 hPa East 4 km/h 10 km/h 91% 0.0 mm 0 W/m2
22:14 8 °C 7 °C 1014.0 hPa ENE 5 km/h 10 km/h 91% 0.0 mm 0 W/m2
22:19 8 °C 7 °C 1014.0 hPa East 5 km/h 10 km/h 91% 0.0 mm 0 W/m2
22:24 8 °C 7 °C 1014.1 hPa ENE 4 km/h 10 km/h 91% 0.0 mm 0 W/m2
22:29 8 °C 7 °C 1014.2 hPa NE 5 km/h 13 km/h 91% 0.0 mm 0 W/m2
22:34 8 °C 7 °C 1014.2 hPa ENE 5 km/h 13 km/h 91% 0.0 mm 0 W/m2
22:39 8 °C 7 °C 1014.3 hPa East 6 km/h 13 km/h 91% 0.0 mm 0 W/m2
22:44 8 °C 7 °C 1014.3 hPa East 4 km/h 8 km/h 91% 0.0 mm 0 W/m2
22:49 8 °C 7 °C 1014.3 hPa ENE 4 km/h 11 km/h 91% 0.0 mm 0 W/m2
22:54 8 °C 7 °C 1014.4 hPa ENE 3 km/h 8 km/h 91% 0.0 mm 0 W/m2
22:59 8 °C 7 °C 1014.4 hPa ENE 4 km/h 13 km/h 91% 0.0 mm 0 W/m2
23:04 8 °C 6 °C 1014.4 hPa ENE 4 km/h 13 km/h 91% 0.0 mm 0 W/m2
23:09 8 °C 6 °C 1014.4 hPa ENE 4 km/h 8 km/h 91% 0.0 mm 0 W/m2
23:14 8 °C 6 °C 1014.3 hPa East 4 km/h 10 km/h 91% 0.0 mm 0 W/m2
23:19 8 °C 6 °C 1014.3 hPa East 3 km/h 10 km/h 91% 0.0 mm 0 W/m2
23:24 7 °C 6 °C 1014.4 hPa East 3 km/h 10 km/h 91% 0.0 mm 0 W/m2
23:29 7 °C 6 °C 1014.4 hPa East 2 km/h 6 km/h 91% 0.0 mm 0 W/m2
23:34 7 °C 6 °C 1014.4 hPa East 2 km/h 8 km/h 91% 0.0 mm 0 W/m2
23:39 8 °C 6 °C 1014.5 hPa East 2 km/h 8 km/h 91% 0.0 mm 0 W/m2
23:44 8 °C 6 °C 1014.5 hPa Calm   3 km/h 91% 0.0 mm 0 W/m2
23:49 8 °C 6 °C 1014.5 hPa East 1 km/h 5 km/h 91% 0.0 mm 0 W/m2
23:54 8 °C 6 °C 1014.5 hPa Calm   3 km/h 91% 0.0 mm 0 W/m2
23:59 8 °C 6 °C 1014.5 hPa Calm   2 km/h 91% 0.0 mm 0 W/m2
Compliments of Weather Underground - 4.25 mb